This demonstration page uses our WeatherBlox Daily Observations layout. Learn more.

Left ArrowRight Arrow

38.89511, -77.03637

Hourly Observations for November 26, 2021

Temp ( °F °C ) Dew Point ( °F °C ) Humidity (%) Winds ( mph kmh ) Pressure ( in mb ) Visibility ( mi km ) Precip ( " mm )
12:52 am 00:52 Cloudy with Light Rain 46 7.8 41 5 83 83 S 5 7 29.80 1009 7 11 0.03 0.76
1:52 am 01:52 Cloudy with Light Rain 46 7.8 42 5.6 86 86 S 5 7 29.79 1009 9 14 0.05 1.27
2:52 am 02:52 Cloudy with Light Rain 45 7.2 42 5.6 90 90 S 7 11 29.78 1009 9 14 0.02 0.51
3:52 am 03:52 Cloudy 44 6.7 41 5 89 89 SSW 6 9 29.75 1008 9 14 0.00 0.00
4:52 am 04:52 Cloudy 45 7.2 42 5.6 90 90 S 6 9 29.75 1008 10 16 N/A
5:52 am 05:52 Cloudy 45 7.2 42 5.6 90 90 S 7 11 29.77 1008 10 16 N/A
6:52 am 06:52 Mostly Cloudy 49 9.4 36 2.2 61 61 WNW 15 24 29.80 1009 10 16 N/A
7:52 am 07:52 Partly Cloudy 47 8.3 35 1.7 63 63 WNW 15 24 29.81 1010 10 16 N/A
8:52 am 08:52 Mostly Cloudy 46 7.8 35 1.7 66 66 NW 18 30 29.85 1011 10 16 0.00 0.00
9:52 am 09:52 Partly Cloudy 47 8.3 29 -1.7 50 50 NNW 21 33 29.88 1012 10 16 N/A
10:52 am 10:52 Mostly Cloudy 47 8.3 25 -3.9 42 42 NW 21 33 29.88 1012 10 16 N/A
11:52 am 11:52 Partly Cloudy 45 7.2 19 -7.2 35 35 NW 23 37 29.86 1011 10 16 N/A
12:52 pm 12:52 Partly Cloudy 46 7.8 19 -7.2 34 34 WNW 22 35 29.86 1011 10 16 N/A
1:52 pm 13:52 Partly Cloudy 45 7.2 18 -7.8 34 34 NW 20 31 29.87 1012 10 16 N/A
2:52 pm 14:52 Mostly Cloudy 43 6.1 19 -7.2 38 38 WNW 21 33 29.90 1013 9 14 N/A
3:52 pm 15:52 Mostly Cloudy 42 5.6 19 -7.2 40 40 WNW 21 33 29.92 1013 10 16 N/A
4:52 pm 16:52 Mostly Cloudy 40 4.4 19 -7.2 43 43 NW 18 30 29.93 1014 10 16 N/A
5:52 pm 17:52 Partly Cloudy 39 3.9 18 -7.8 43 43 WNW 18 30 29.93 1014 10 16 N/A
6:52 pm 18:52 Mostly Cloudy 37 2.8 18 -7.8 46 46 NW 12 19 29.96 1015 10 16 N/A
7:52 pm 19:52 Mostly Cloudy 37 2.8 18 -7.8 46 46 WNW 17 28 29.96 1015 10 16 N/A
8:52 pm 20:52 Cloudy 37 2.8 18 -7.8 46 46 WNW 13 20 29.95 1014 10 16 N/A

Powered by AerisWeather